Location: Kawakawa
(35.3830°S, 174.0670°E)
Time: 18:36:29
(UTC+12:00)

OAO 3 Copernicus - Pass Details

Date: 15 August 2020
Orbit: 695 x 704 km, 35.0° (Epoch: 25 September)

Event Time Altitude Azimuth Distance (km) Brightness Sun altitude
Rises 18:46:09 0° 272° (W) 3,091 9.7 -11.6°
Reaches altitude 10° 18:48:34 10° 272° (W) 2,175 8.4 -12.1°
Maximum altitude 18:53:41 88° 360° (N) 713 4.3 -13.1°
Enters shadow 18:57:13 20° 88° (E) 1,591 5.5 -13.8°
